Time[GMT],temperature[C](1m),salinity[psu](1m),sigma_t[kg/m^3](1m),conductivity[msiemens/cm](1m)
2004-10-06 14:00,12.20,30.947,23.407,35.984
2004-10-06 15:00,12.22,30.909,23.374,35.962
2004-10-06 17:00,12.33,30.885,23.335,36.032
2004-10-06 18:00,12.35,30.906,23.347,36.071
2004-10-06 19:00,12.37,30.921,23.355,36.104
2004-10-06 21:00,12.36,30.928,23.363,36.103
2004-10-06 23:00,12.23,30.991,23.435,36.056
2004-10-07 00:00,12.16,31.065,23.506,36.073
2004-10-07 01:00,12.12,31.094,23.536,36.069
2004-10-07 02:00,,,,
2004-10-07 04:00,12.19,30.998,23.448,36.029
2004-10-07 05:00,12.20,30.985,23.436,36.024
2004-10-07 06:00,12.15,30.958,23.425,35.953
2004-10-07 07:00,12.14,30.992,23.453,35.980
2004-10-07 08:00,12.11,30.947,23.424,35.907
2004-10-07 09:00,12.09,30.896,23.388,35.836
2004-10-07 10:00,12.07,30.955,23.437,35.880
2004-10-07 11:00,12.02,30.965,23.454,35.848
2004-10-07 12:00,12.02,30.905,23.408,35.785
2004-10-07 13:00,12.08,30.895,23.389,35.826
2004-10-07 14:00,12.05,30.829,23.343,35.732
2004-10-07 16:00,12.41,30.817,23.267,36.029
2004-10-07 19:00,12.51,30.815,23.247,36.114
2004-10-07 20:00,12.58,30.860,23.269,36.222
2004-10-07 21:00,12.51,30.954,23.354,36.260
2004-10-07 22:00,12.40,30.977,23.393,36.189
2004-10-07 23:00,12.40,31.002,23.412,36.215
2004-10-08 00:00,12.32,30.981,23.411,36.124
2004-10-08 01:00,12.44,30.954,23.368,36.200
2004-10-08 02:00,12.18,31.029,23.474,36.053
2004-10-08 03:00,12.19,31.007,23.456,36.039
2004-10-08 04:00,12.29,31.011,23.440,36.129
2004-10-08 05:00,12.18,30.857,23.341,35.873
2004-10-08 06:00,12.12,30.835,23.335,35.798
2004-10-08 07:00,12.12,30.858,23.353,35.822
2004-10-08 08:00,12.07,30.814,23.328,35.733
2004-10-08 09:00,12.04,30.797,23.320,35.690
2004-10-08 10:00,12.01,30.795,23.324,35.662
2004-10-08 12:00,12.05,30.851,23.360,35.754
2004-10-08 14:00,12.20,30.904,23.373,35.939
2004-10-08 15:00,12.26,30.944,23.393,36.033
2004-10-08 17:00,12.33,31.064,23.474,36.220
2004-10-08 18:00,12.38,31.144,23.526,36.347
2004-10-08 19:00,12.34,31.174,23.557,36.344
2004-10-08 20:00,12.37,31.189,23.563,36.386
2004-10-08 22:00,12.21,31.269,23.655,36.330
2004-10-08 23:00,12.18,31.278,23.667,36.313
2004-10-09 00:00,,,,
2004-10-09 01:00,12.18,31.288,23.675,36.324
2004-10-09 02:00,12.23,31.239,23.628,36.316
2004-10-09 03:00,12.15,31.163,23.584,36.167
2004-10-09 04:00,12.23,31.214,23.608,36.290
2004-10-09 05:00,12.12,31.273,23.675,36.256
2004-10-09 06:00,12.05,31.299,23.708,36.222
2004-10-09 07:00,12.03,31.328,23.734,36.234
2004-10-09 08:00,12.05,31.315,23.720,36.238
2004-10-09 09:00,11.93,31.381,23.793,36.202
2004-10-09 10:00,11.93,31.412,23.817,36.234
2004-10-09 11:00,11.90,31.426,23.833,36.222
2004-10-09 12:00,,,,
2004-10-09 13:00,11.90,31.430,23.837,36.227
2004-10-09 15:00,11.91,31.465,23.862,36.272
2004-10-09 17:00,12.04,31.454,23.830,36.374
2004-10-09 18:00,12.05,31.451,23.826,36.380
2004-10-09 19:00,12.05,31.461,23.833,36.390
2004-10-09 20:00,12.04,31.489,23.857,36.411
2004-10-09 22:00,11.99,31.506,23.879,36.384
2004-10-09 23:00,11.95,31.533,23.907,36.377
2004-10-10 00:00,11.96,31.530,23.903,36.383
2004-10-10 01:00,11.95,31.527,23.903,36.371
2004-10-10 02:00,11.96,31.515,23.891,36.367
2004-10-10 03:00,11.95,31.514,23.893,36.358
2004-10-10 05:00,11.89,31.547,23.929,36.339
2004-10-10 07:00,11.83,31.566,23.955,36.306
2004-10-10 08:00,11.84,31.563,23.951,36.312
2004-10-10 09:00,11.84,31.568,23.955,36.317
2004-10-10 10:00,11.83,31.570,23.958,36.310
2004-10-10 11:00,11.79,31.592,23.983,36.298
2004-10-10 12:00,11.80,31.588,23.978,36.303
2004-10-10 13:00,11.78,31.604,23.994,36.302
2004-10-10 16:00,12.00,31.545,23.908,36.434
2004-10-10 17:00,12.09,31.556,23.899,36.524
2004-10-10 18:00,12.30,31.602,23.896,36.757
2004-10-10 19:00,12.32,31.509,23.820,36.677
2004-10-10 20:00,11.87,31.575,23.955,36.351
2004-10-10 22:00,12.15,31.548,23.882,36.569
2004-10-10 23:00,12.12,31.509,23.858,36.502
2004-10-11 00:00,11.98,31.556,23.920,36.428
2004-10-11 02:00,11.81,31.623,24.003,36.348
2004-10-11 06:00,11.79,31.578,23.971,36.283
2004-10-11 07:00,,,,
2004-10-11 10:00,11.72,31.602,24.003,36.247
2004-10-11 13:00,11.51,31.704,24.120,36.167
2004-10-11 14:00,11.55,31.691,24.103,36.189
2004-10-11 15:00,11.53,31.701,24.114,36.182
2004-10-11 17:00,,,,56.330
2004-10-11 22:00,11.84,31.454,23.866,36.199
2004-10-12 00:00,11.76,31.515,23.928,36.192
2004-10-12 01:00,,,,
2004-10-12 02:00,,,,
2004-10-12 05:00,11.82,31.377,23.810,36.102
2004-10-12 07:00,,,,
2004-10-12 11:00,,,,
2004-10-12 13:00,11.60,31.427,23.889,35.961
2004-10-12 15:00,11.55,31.528,23.977,36.022
2004-10-12 21:00,,,,
2004-10-12 22:00,11.76,31.004,23.531,35.663
2004-10-12 23:00,11.68,31.153,23.662,35.748
2004-10-13 04:00,11.64,31.110,23.635,35.669
2004-10-13 07:00,11.57,31.260,23.764,35.763
2004-10-13 08:00,11.62,30.962,23.524,35.499
2004-10-13 09:00,11.65,30.807,23.399,35.365
2004-10-13 11:00,11.58,31.028,23.583,35.533
2004-10-13 12:00,,,,
2004-10-13 13:00,11.58,31.126,23.659,35.634
2004-10-13 14:00,11.61,31.193,23.706,35.729
2004-10-13 16:00,,,,
2004-10-13 17:00,11.87,31.081,23.571,35.838
2004-10-13 18:00,11.87,31.233,23.689,35.996
2004-10-13 19:00,11.97,31.459,23.846,36.318
2004-10-13 20:00,11.87,31.440,23.850,36.211
2004-10-13 21:00,11.94,30.992,23.489,35.806
2004-10-13 22:00,12.05,30.862,23.369,35.766
2004-10-13 23:00,11.90,30.859,23.394,35.634
2004-10-14 00:00,11.80,30.937,23.472,35.628
2004-10-14 01:00,,,,
2004-10-14 02:00,11.70,30.896,23.459,35.500
2004-10-14 03:00,11.66,30.936,23.497,35.507
2004-10-14 04:00,11.60,31.077,23.617,35.601
2004-10-14 05:00,11.57,30.906,23.490,35.398
2004-10-14 06:00,11.66,30.897,23.466,35.466
2004-10-14 07:00,11.70,30.821,23.400,35.422
2004-10-14 08:00,11.54,31.317,23.814,35.796
2004-10-14 09:00,11.53,31.357,23.847,35.828
2004-10-14 10:00,,,,
2004-10-14 11:00,11.44,31.442,23.929,35.837
2004-10-14 12:00,11.40,31.489,23.973,35.850
2004-10-14 13:00,11.43,31.489,23.968,35.877
2004-10-14 14:00,,,,35.852
2004-10-14 15:00,11.90,31.157,23.625,35.943
2004-10-14 16:00,11.90,31.101,23.581,35.885
2004-10-14 17:00,12.08,31.216,23.638,36.161
2004-10-14 18:00,12.21,31.157,23.568,36.213
2004-10-14 19:00,12.10,31.136,23.572,36.095
2004-10-14 20:00,,,,
2004-10-14 22:00,11.98,31.081,23.552,35.934
2004-10-14 23:00,11.96,31.173,23.626,36.012
2004-10-15 00:00,11.93,31.309,23.737,36.127
2004-10-15 01:00,11.86,31.374,23.801,36.134
2004-10-15 02:00,11.79,31.371,23.811,36.069
2004-10-15 03:00,,,,
2004-10-15 04:00,11.81,31.236,23.703,35.947
2004-10-15 05:00,11.73,31.373,23.823,36.019
2004-10-15 07:00,11.58,31.470,23.926,35.988
2004-10-15 09:00,11.45,31.506,23.978,35.912
2004-10-15 10:00,11.42,31.550,24.016,35.930
2004-10-15 11:00,11.39,31.585,24.049,35.940
2004-10-15 12:00,11.35,31.664,24.118,35.986
2004-10-15 13:00,11.28,31.728,24.180,35.990
2004-10-15 15:00,,,,
2004-10-15 16:00,11.41,31.577,24.039,35.949
2004-10-15 17:00,11.68,31.276,23.757,35.875
2004-10-15 20:00,11.45,31.531,23.996,35.937
2004-10-15 21:00,11.39,31.593,24.055,35.948
2004-10-15 22:00,11.38,31.600,24.063,35.947
2004-10-15 23:00,11.39,31.586,24.050,35.941
2004-10-16 00:00,,,,50.200
2004-10-16 01:00,11.78,31.081,23.587,35.760
2004-10-16 02:00,11.75,31.112,23.618,35.767
2004-10-16 03:00,11.62,31.277,23.769,35.824
2004-10-16 04:00,11.51,31.419,23.899,35.875
2004-10-16 08:00,11.46,31.485,23.959,35.899
2004-10-16 10:00,,,,
2004-10-16 11:00,11.37,31.609,24.071,35.947
2004-10-16 13:00,11.45,31.519,23.987,35.925
2004-10-16 14:00,11.54,31.435,23.906,35.917
2004-10-16 15:00,11.57,31.423,23.891,35.931
2004-10-16 16:00,11.57,31.437,23.902,35.945
2004-10-16 17:00,11.56,31.485,23.941,35.986
2004-10-16 18:00,11.64,31.445,23.896,36.015
2004-10-16 19:00,,,,
2004-10-16 22:00,11.73,31.352,23.807,35.997
2004-10-16 23:00,11.65,31.378,23.842,35.954
2004-10-17 00:00,11.65,31.363,23.830,35.939
2004-10-17 01:00,11.71,31.332,23.795,35.959
2004-10-17 03:00,11.44,31.552,24.015,35.950
2004-10-17 04:00,11.47,31.540,24.000,35.964
2004-10-17 06:00,11.43,31.548,24.013,35.937
2004-10-17 07:00,11.45,31.525,23.992,35.931
2004-10-17 09:00,11.53,31.459,23.926,35.933
2004-10-17 10:00,11.45,31.526,23.993,35.932
2004-10-17 11:00,11.43,31.532,24.001,35.921
2004-10-17 12:00,11.37,31.581,24.049,35.918
2004-10-17 13:00,11.40,31.560,24.028,35.923
2004-10-17 14:00,,,,
2004-10-17 15:00,11.38,31.617,24.076,35.964
2004-10-17 16:00,11.36,31.647,24.103,35.977
2004-10-17 18:00,11.42,31.633,24.081,36.015
2004-10-17 19:00,11.40,31.657,24.104,36.023
2004-10-17 20:00,11.40,31.641,24.091,36.006
2004-10-17 23:00,,,,
2004-10-18 00:00,11.28,31.676,24.140,35.937
2004-10-18 02:00,11.22,31.711,24.177,35.920
2004-10-18 03:00,11.22,31.695,24.165,35.903
2004-10-18 04:00,11.27,31.649,24.120,35.900
2004-10-18 06:00,11.22,31.683,24.155,35.891
2004-10-18 07:00,11.23,31.666,24.141,35.883
2004-10-18 08:00,11.21,31.676,24.152,35.875
2004-10-18 11:00,11.14,31.688,24.173,35.826
2004-10-18 12:00,11.12,31.665,24.159,35.785
2004-10-18 13:00,11.13,31.669,24.160,35.798
2004-10-18 14:00,11.19,31.634,24.123,35.815
2004-10-18 15:00,11.21,31.693,24.165,35.893
2004-10-18 16:00,11.18,31.709,24.183,35.883
2004-10-18 17:00,11.31,31.682,24.139,35.969
2004-10-18 18:00,,,,
2004-10-18 20:00,11.36,31.707,24.150,36.039
2004-10-18 21:00,11.34,31.685,24.135,35.998
2004-10-18 22:00,11.30,31.652,24.118,35.930
2004-10-18 23:00,11.30,31.635,24.104,35.912
2004-10-19 00:00,11.25,31.621,24.102,35.854
2004-10-19 01:00,11.36,31.580,24.051,35.909
2004-10-19 03:00,11.32,31.585,24.062,35.879
2004-10-19 04:00,,,,
2004-10-19 05:00,11.20,31.654,24.136,35.844
2004-10-19 06:00,11.17,31.640,24.131,35.804
2004-10-19 07:00,11.13,31.652,24.147,35.781
2004-10-19 08:00,11.10,31.690,24.182,35.793
2004-10-19 09:00,11.11,31.678,24.171,35.790
2004-10-19 12:00,11.13,31.603,24.109,35.731
2004-10-19 13:00,,,,
2004-10-19 14:00,11.16,31.587,24.092,35.741
2004-10-19 15:00,11.17,31.585,24.088,35.748
2004-10-19 16:00,11.19,31.604,24.099,35.784
2004-10-19 17:00,11.24,31.694,24.161,35.920
2004-10-19 18:00,11.21,31.695,24.167,35.895
2004-10-19 19:00,11.20,31.751,24.212,35.943
2004-10-19 20:00,11.19,31.750,24.213,35.933
2004-10-19 21:00,11.17,31.711,24.186,35.876
2004-10-19 22:00,11.16,31.712,24.189,35.868
2004-10-19 23:00,,,,
2004-10-20 00:00,11.22,31.604,24.094,35.811
2004-10-20 01:00,11.15,31.606,24.108,35.751
2004-10-20 02:00,11.20,31.575,24.075,35.764
2004-10-20 03:00,11.18,31.585,24.086,35.756
2004-10-20 07:00,11.06,31.677,24.179,35.745
2004-10-20 11:00,,,,
2004-10-20 16:00,11.19,31.625,24.116,35.806
2004-10-20 17:00,,,,
2004-10-20 18:00,11.18,31.736,24.204,35.910
2004-10-20 19:00,11.01,31.799,24.283,35.825
2004-10-20 21:00,11.17,31.618,24.114,35.781
2004-10-20 22:00,11.07,31.705,24.199,35.782
2004-10-20 23:00,11.12,31.577,24.091,35.696
2004-10-21 01:00,11.12,31.588,24.099,35.707
2004-10-21 02:00,11.13,31.547,24.066,35.674
2004-10-21 08:00,,,,
2004-10-21 09:00,11.04,31.586,24.112,35.635
2004-10-21 10:00,11.06,31.576,24.100,35.642
2004-10-21 12:00,,,,
2004-10-21 13:00,11.06,31.570,24.096,35.636
2004-10-21 14:00,11.11,31.550,24.072,35.660
2004-10-21 16:00,11.19,31.447,23.977,35.624
2004-10-21 17:00,11.21,31.445,23.972,35.640
2004-10-21 19:00,11.19,31.283,23.850,35.457
2004-10-21 20:00,11.19,31.360,23.910,35.536
2004-10-21 21:00,11.16,31.382,23.932,35.532
2004-10-21 23:00,11.14,31.458,23.995,35.592
2004-10-22 01:00,11.11,31.457,23.999,35.565
2004-10-22 02:00,11.09,31.493,24.031,35.584
2004-10-22 07:00,11.09,31.451,23.998,35.541
2004-10-22 14:00,11.04,31.479,24.028,35.526
2004-10-22 17:00,,,,
2004-10-22 18:00,11.02,30.756,23.470,34.774
2004-10-22 22:00,10.96,30.829,23.537,34.797
2004-10-23 04:00,10.96,31.277,23.885,35.252
2004-10-23 05:00,,,,
2004-10-23 08:00,10.82,30.612,23.392,34.457
2004-10-23 09:00,10.81,30.757,23.507,34.596
2004-10-23 12:00,10.87,31.249,23.879,35.146
2004-10-23 16:00,10.72,31.807,24.339,35.579
2004-10-23 17:00,10.89,30.919,23.619,34.828
2004-10-23 20:00,10.85,31.216,23.857,35.095
2004-10-23 21:00,,,,
2004-10-23 22:00,10.78,31.476,24.071,35.297
2004-10-23 23:00,10.74,31.604,24.178,35.392
2004-10-24 06:00,,,,
2004-10-24 09:00,10.68,30.728,23.506,34.456
2004-10-24 12:00,10.59,31.391,24.037,35.047
2004-10-24 13:00,10.60,31.412,24.052,35.077
2004-10-24 14:00,10.53,31.702,24.290,35.307
2004-10-24 15:00,10.56,31.774,24.341,35.406
2004-10-24 16:00,,,,
2004-10-24 18:00,10.64,30.670,23.468,34.363
2004-10-24 20:00,10.68,30.758,23.529,34.486
2004-10-24 21:00,10.71,30.872,23.613,34.627
2004-10-24 22:00,10.67,30.914,23.653,34.635
2004-10-25 01:00,10.66,31.223,23.895,34.938
2004-10-25 03:00,10.62,31.661,24.242,35.344
2004-10-25 06:00,10.62,31.702,24.275,35.386
2004-10-25 08:00,10.56,30.627,23.448,34.252
2004-10-25 09:00,10.55,30.677,23.488,34.294
2004-10-25 10:00,10.58,30.756,23.545,34.399
2004-10-25 11:00,,,,
2004-10-25 12:00,10.55,30.938,23.692,34.557
2004-10-25 13:00,10.54,30.998,23.740,34.609
2004-10-25 17:00,10.63,31.643,24.227,35.335
2004-10-25 18:00,10.71,31.547,24.138,35.308
2004-10-25 19:00,10.68,31.578,24.168,35.313
2004-10-25 20:00,,,,
2004-10-25 21:00,10.60,30.980,23.716,34.642
2004-10-25 22:00,10.55,30.812,23.593,34.430
2004-10-25 23:00,10.57,30.862,23.629,34.497
2004-10-26 00:00,10.60,31.071,23.786,34.733
2004-10-26 01:00,10.61,31.177,23.868,34.849
2004-10-26 03:00,10.63,31.272,23.938,34.962
2004-10-26 04:00,10.64,31.312,23.968,35.011
2004-10-26 05:00,,,,
2004-10-26 07:00,10.62,31.435,24.066,35.117
2004-10-26 08:00,10.62,31.494,24.113,35.177
2004-10-26 09:00,10.60,31.519,24.135,35.184
2004-10-26 10:00,10.60,31.575,24.179,35.241
2004-10-26 11:00,10.53,31.132,23.846,34.735
2004-10-26 14:00,10.55,31.227,23.917,34.848
2004-10-26 17:00,10.68,31.561,24.154,35.296
2004-10-26 19:00,10.71,31.592,24.173,35.353
2004-10-26 20:00,10.70,31.573,24.161,35.326
2004-10-26 21:00,10.67,31.564,24.158,35.290
2004-10-26 22:00,10.70,31.355,23.991,35.106
2004-10-26 23:00,10.60,31.247,23.924,34.911
2004-10-27 00:00,,,,
2004-10-27 01:00,10.64,31.177,23.863,34.875
2004-10-27 02:00,10.62,31.199,23.883,34.880
2004-10-27 05:00,10.53,31.156,23.865,34.759
2004-10-27 08:00,10.55,31.306,23.978,34.927
2004-10-27 09:00,10.57,31.337,23.999,34.975
2004-10-27 10:00,10.57,31.367,24.023,35.006
2004-10-27 11:00,10.51,31.492,24.130,35.079
2004-10-27 12:00,10.50,31.446,24.095,35.024
2004-10-27 15:00,10.54,31.417,24.066,35.030
2004-10-27 17:00,10.58,31.658,24.247,35.307
2004-10-27 18:00,10.34,31.886,24.465,35.325
2004-10-27 19:00,10.77,31.703,24.250,35.518
2004-10-27 21:00,10.59,31.102,23.812,34.756
2004-10-27 23:00,10.52,31.024,23.764,34.618
2004-10-28 08:00,10.37,31.765,24.366,35.231
2004-10-28 11:00,10.40,31.268,23.974,34.760
2004-10-28 14:00,,,,
2004-10-28 16:00,10.39,31.523,24.174,35.006
2004-10-28 19:00,10.40,31.692,24.304,35.184
2004-10-28 20:00,10.35,31.776,24.378,35.224
2004-10-28 21:00,10.33,31.749,24.360,35.180
2004-10-28 22:00,10.39,31.139,23.875,34.622
2004-10-28 23:00,10.36,31.073,23.829,34.530
2004-10-29 00:00,10.32,31.172,23.912,34.595
2004-10-29 01:00,10.37,31.250,23.965,34.716
2004-10-29 02:00,10.32,31.278,23.995,34.701
2004-10-29 03:00,10.26,31.351,24.062,34.722
2004-10-29 04:00,10.31,31.306,24.018,34.720
2004-10-29 05:00,10.26,31.304,24.025,34.675
2004-10-29 06:00,10.12,31.091,23.882,34.343
2004-10-29 07:00,10.22,31.309,24.036,34.646
2004-10-29 08:00,10.24,31.424,24.121,34.777
2004-10-29 09:00,10.25,31.368,24.076,34.730
2004-10-29 10:00,10.25,31.340,24.054,34.702
2004-10-29 11:00,10.08,30.988,23.808,34.206
2004-10-29 12:00,10.04,31.018,23.838,34.202
2004-10-29 13:00,10.19,31.148,23.915,34.459
2004-10-29 14:00,10.23,31.198,23.947,34.543
2004-10-29 15:00,10.31,31.355,24.056,34.769
2004-10-29 17:00,10.39,31.418,24.092,34.901
2004-10-29 18:00,10.40,31.587,24.222,35.079
2004-10-29 19:00,10.45,31.662,24.272,35.197
2004-10-29 20:00,10.35,31.791,24.389,35.239
2004-10-29 21:00,10.32,31.773,24.381,35.195
2004-10-29 22:00,10.36,31.618,24.253,35.075
2004-10-29 23:00,10.25,31.214,23.957,34.577
2004-10-30 00:00,10.20,31.261,24.002,34.581
2004-10-30 01:00,10.14,31.279,24.025,34.547
2004-10-30 02:00,10.24,31.317,24.039,34.671
2004-10-30 03:00,10.31,31.287,24.003,34.701
2004-10-30 04:00,10.22,31.404,24.109,34.740
2004-10-30 05:00,10.15,31.339,24.070,34.615
2004-10-30 07:00,10.30,31.547,24.208,34.952
2004-10-30 08:00,10.30,31.568,24.224,34.973
2004-10-30 09:00,10.23,31.552,24.223,34.896
2004-10-30 10:00,10.25,31.522,24.197,34.884
2004-10-30 11:00,,,,
2004-10-30 13:00,10.26,31.554,24.220,34.924
2004-10-30 14:00,10.32,31.575,24.226,34.997
2004-10-30 15:00,10.38,31.580,24.220,35.054
2004-10-30 17:00,,,,
2004-10-30 20:00,10.33,31.507,24.171,34.938
2004-10-30 22:00,,,,
2004-10-31 01:00,10.28,31.335,24.046,34.723
2004-10-31 02:00,10.27,31.418,24.112,34.797
2004-10-31 03:00,10.22,31.498,24.183,34.834
2004-10-31 04:00,10.17,31.547,24.229,34.839
2004-10-31 06:00,10.21,31.546,24.222,34.873
2004-10-31 07:00,10.12,31.552,24.241,34.801
2004-10-31 08:00,10.18,31.509,24.198,34.810
2004-10-31 09:00,10.29,31.492,24.167,34.889
2004-10-31 11:00,10.27,31.517,24.189,34.896
2004-10-31 12:00,10.28,31.532,24.200,34.920
2004-10-31 13:00,10.29,31.539,24.203,34.935
2004-10-31 14:00,10.26,31.550,24.216,34.920
2004-10-31 16:00,10.24,31.565,24.232,34.918
2004-10-31 17:00,10.22,31.568,24.238,34.904
2004-10-31 18:00,10.30,31.567,24.223,34.972
2004-10-31 21:00,10.61,31.432,24.066,35.105
2004-10-31 22:00,10.47,31.404,24.068,34.956
2004-10-31 23:00,10.55,31.356,24.017,34.977
2004-11-01 00:00,10.49,31.344,24.017,34.913
2004-11-01 01:00,10.47,31.339,24.017,34.891
2004-11-01 02:00,10.41,31.402,24.076,34.902
2004-11-01 03:00,10.37,31.437,24.110,34.903
2004-11-01 04:00,10.27,31.515,24.188,34.894
2004-11-01 05:00,10.27,31.527,24.197,34.906
2004-11-01 06:00,10.24,31.532,24.206,34.885
2004-11-01 07:00,10.20,31.539,24.218,34.857
2004-11-01 08:00,10.33,31.456,24.132,34.887
2004-11-01 11:00,10.24,31.481,24.166,34.834
2004-11-01 12:00,,,,
2004-11-01 14:00,10.27,31.444,24.132,34.823
2004-11-01 15:00,10.31,31.464,24.141,34.878
2004-11-01 16:00,10.24,31.534,24.207,34.887
2004-11-01 17:00,10.21,31.592,24.258,34.919
2004-11-01 23:00,10.20,31.570,24.242,34.888
2004-11-02 03:00,10.17,31.575,24.251,34.867
2004-11-02 05:00,10.08,31.659,24.332,34.873
2004-11-02 11:00,10.00,31.657,24.343,34.801
2004-11-02 17:00,10.24,31.567,24.233,34.920
2004-11-02 18:00,10.20,31.598,24.264,34.916
2004-11-02 19:00,10.19,31.590,24.260,34.900
2004-11-02 20:00,10.15,31.594,24.269,34.869
2004-11-02 21:00,10.17,31.557,24.237,34.849
2004-11-02 23:00,10.11,31.546,24.239,34.787
2004-11-03 00:00,10.12,31.534,24.227,34.783
2004-11-03 02:00,10.09,31.547,24.242,34.770
2004-11-03 03:00,10.10,31.549,24.243,34.781
2004-11-03 05:00,10.08,31.545,24.243,34.760
2004-11-03 08:00,10.05,31.539,24.243,34.728
2004-11-03 10:00,10.06,31.527,24.232,34.724
2004-11-03 11:00,10.09,31.538,24.235,34.761
2004-11-03 16:00,10.03,31.625,24.314,34.796
2004-11-03 17:00,10.01,31.677,24.357,34.830
2004-11-03 21:00,9.94,31.735,24.413,34.826
2004-11-04 02:00,9.86,31.728,24.421,34.750
2004-11-04 04:00,9.83,31.739,24.435,34.735
2004-11-04 05:00,9.77,31.760,24.461,34.703
2004-11-04 06:00,9.80,31.796,24.484,34.765
2004-11-04 09:00,9.79,31.752,24.452,34.713
2004-11-04 10:00,9.78,31.736,24.440,34.688
2004-11-04 11:00,9.75,31.738,24.447,34.664
2004-11-04 12:00,9.73,31.693,24.415,34.603
2004-11-04 13:00,9.79,31.681,24.396,34.643
2004-11-04 14:00,9.81,31.678,24.390,34.657
2004-11-04 15:00,9.86,31.689,24.391,34.712
2004-11-04 16:00,,,,
2004-11-04 17:00,9.93,31.719,24.403,34.802
2004-11-04 18:00,9.99,31.724,24.397,34.859
2004-11-04 19:00,9.85,31.755,24.444,34.768
2004-11-04 20:00,9.73,31.802,24.500,34.710
2004-11-04 21:00,9.71,31.805,24.506,34.696
2004-11-04 22:00,9.74,31.786,24.486,34.703
2004-11-05 00:00,9.84,31.705,24.407,34.710
2004-11-05 03:00,9.80,31.722,24.426,34.692
2004-11-05 04:00,9.79,31.699,24.410,34.661
2004-11-05 08:00,,,,
2004-11-05 09:00,9.73,31.693,24.415,34.603
2004-11-05 10:00,9.73,31.687,24.411,34.597
2004-11-05 11:00,,,,
2004-11-05 12:00,9.69,31.765,24.478,34.639
2004-11-05 13:00,9.71,31.735,24.451,34.627
2004-11-05 14:00,9.73,31.733,24.446,34.642
2004-11-05 15:00,9.75,31.727,24.439,34.654
2004-11-05 18:00,9.74,31.710,24.427,34.628
2004-11-05 19:00,9.72,31.716,24.435,34.617
2004-11-05 22:00,9.68,31.729,24.451,34.595
2004-11-05 23:00,9.66,31.720,24.448,34.569
2004-11-06 00:00,9.64,31.724,24.454,34.555
2004-11-06 01:00,9.64,31.729,24.458,34.560
2004-11-06 02:00,9.62,31.738,24.468,34.552
2004-11-06 03:00,9.61,31.723,24.458,34.528
2004-11-06 04:00,9.61,31.723,24.458,34.528
2004-11-06 06:00,,,,
2004-11-06 07:00,9.54,31.741,24.483,34.485
2004-11-06 08:00,9.54,31.748,24.488,34.492
2004-11-06 09:00,9.50,31.759,24.503,34.468
2004-11-06 10:00,9.49,31.777,24.519,34.477
2004-11-06 11:00,9.49,31.785,24.525,34.485
2004-11-06 12:00,9.48,31.760,24.507,34.452
2004-11-06 15:00,,,,
2004-11-06 16:00,9.55,31.738,24.479,34.491
2004-11-06 17:00,9.55,31.760,24.497,34.513
2004-11-06 19:00,9.54,31.776,24.511,34.520
2004-11-06 22:00,9.53,31.800,24.530,34.534
2004-11-06 23:00,9.51,31.802,24.535,34.519
2004-11-07 00:00,,,,
2004-11-07 01:00,9.51,31.806,24.539,34.523
2004-11-07 02:00,9.49,31.789,24.529,34.489
2004-11-07 03:00,9.51,31.791,24.527,34.508
2004-11-07 04:00,9.52,31.796,24.529,34.522
2004-11-07 05:00,9.51,31.798,24.532,34.515
2004-11-07 07:00,9.48,31.802,24.540,34.493
2004-11-07 08:00,9.48,31.803,24.541,34.494
2004-11-07 09:00,9.47,31.803,24.542,34.485
2004-11-07 10:00,,,,
2004-11-07 11:00,9.46,31.808,24.548,34.481
2004-11-07 13:00,9.49,31.789,24.529,34.489
2004-11-07 14:00,9.51,31.763,24.505,34.481
2004-11-07 16:00,9.54,31.769,24.505,34.513
2004-11-07 18:00,9.57,31.778,24.508,34.548
2004-11-07 19:00,,,,
2004-11-07 20:00,9.53,31.795,24.526,34.529
2004-11-07 21:00,9.49,31.807,24.543,34.507
2004-11-07 23:00,9.49,31.816,24.549,34.515
2004-11-08 01:00,9.50,31.816,24.548,34.524
2004-11-08 02:00,9.52,31.806,24.537,34.532
2004-11-08 03:00,9.54,31.811,24.538,34.554
2004-11-08 04:00,9.53,31.802,24.532,34.536
2004-11-08 05:00,,,,
2004-11-08 06:00,9.54,31.802,24.531,34.545
2004-11-08 08:00,9.54,31.801,24.530,34.544
2004-11-08 10:00,9.50,31.807,24.541,34.515
2004-11-08 14:00,,,,
2004-11-08 17:00,9.52,31.802,24.534,34.528
2004-11-08 18:00,9.53,31.807,24.536,34.541
2004-11-08 20:00,9.51,31.808,24.540,34.525
2004-11-08 21:00,9.47,31.818,24.554,34.500
2004-11-08 22:00,9.43,31.824,24.565,34.471
2004-11-08 23:00,9.41,31.836,24.578,34.465
2004-11-09 00:00,,,,
2004-11-09 02:00,9.34,31.841,24.593,34.410
2004-11-09 04:00,9.34,31.854,24.603,34.422
2004-11-09 07:00,9.36,31.831,24.582,34.417
2004-11-09 08:00,9.34,31.837,24.590,34.406
2004-11-09 09:00,,,,
2004-11-09 10:00,9.29,31.846,24.604,34.371
2004-11-09 11:00,9.22,31.875,24.639,34.339
2004-11-09 12:00,9.24,31.887,24.645,34.368
2004-11-09 13:00,9.24,31.909,24.662,34.389
2004-11-09 15:00,9.21,31.874,24.639,34.329
2004-11-09 16:00,9.30,31.870,24.622,34.403
2004-11-09 17:00,9.37,31.857,24.600,34.451
2004-11-09 18:00,,,,
2004-11-09 19:00,,,,
2004-11-09 20:00,9.32,31.840,24.595,34.391
2004-11-09 21:00,9.33,31.835,24.590,34.395
2004-11-10 01:00,9.13,31.920,24.687,34.304
2004-11-10 03:00,9.11,31.934,24.701,34.300
2004-11-10 08:00,9.17,31.856,24.631,34.277
2004-11-10 10:00,9.18,31.888,24.655,34.317
2004-11-10 11:00,9.07,31.912,24.690,34.244
2004-11-10 12:00,9.05,31.943,24.718,34.257
2004-11-10 14:00,8.97,31.929,24.719,34.174
2004-11-10 15:00,9.12,31.891,24.666,34.267
2004-11-10 16:00,9.21,31.899,24.658,34.353
2004-11-10 17:00,9.20,31.881,24.646,34.327
2004-11-10 18:00,9.12,31.766,24.568,34.146
2004-11-10 19:00,8.92,31.586,24.458,33.800
2004-11-10 21:00,8.81,31.539,24.439,33.661
2004-11-10 22:00,8.83,31.589,24.475,33.726